When you browse on this site, cookies collect data to enhance your experience and personalize the content and advertising you see.
Visit our Privacy Policy to learn more. By continuing to use the site, you agree to this use of cookies and data.
  • In Austria
  • List of Countries
  • For 7 days
  • Water Temperature
  • Weather Map
  • News
  • Weather Widgets
  • user-avatar
    Login

    Hourly Weather Sherpur

    Today, 20 February, Thursday

    Time Temperature Precipitation Wind Pressure Humidity
    00:00 0°C° 0.2 mm 1 mps 608 mmHg 53%
    01:00 0°C° 0.2 mm 1 mps 608 mmHg 55%
    02:00 0°C° 0.2 mm 1 mps 608 mmHg 58%
    03:00 0°C° 0 mm 1 mps 607 mmHg 58%
    04:00 0°C° 0 mm 1 mps 607 mmHg 57%
    05:00 -1°C° 0 mm 1 mps 606 mmHg 57%
    06:00 -1°C° 0 mm 1 mps 607 mmHg 56%
    07:00 0°C° 0 mm 1 mps 607 mmHg 54%
    08:00 0°C° 0 mm 1 mps 607 mmHg 53%
    09:00 +1°C° 0 mm 1 mps 608 mmHg 53%
    10:00 +2°C° 0 mm 1 mps 608 mmHg 53%
    11:00 +4°C° 0 mm 1 mps 609 mmHg 54%
    12:00 +5°C° 0 mm 1 mps 608 mmHg 55%
    13:00 +6°C° 0 mm 1 mps 608 mmHg 56%
    14:00 +6°C° 0 mm 1 mps 608 mmHg 56%
    15:00 +6°C° 0 mm 1 mps 608 mmHg 57%
    16:00 +6°C° 0 mm 1 mps 608 mmHg 58%
    17:00 +5°C° 0 mm 1 mps 608 mmHg 59%
    18:00 +4°C° 0 mm 1 mps 608 mmHg 59%
    19:00 +3°C° 0 mm 1 mps 608 mmHg 60%
    20:00 +1°C° 0 mm 2 mps 608 mmHg 60%
    21:00 +1°C° 0 mm 2 mps 608 mmHg 58%
    22:00 +1°C° 0 mm 2 mps 608 mmHg 57%
    23:00 +1°C° 0 mm 2 mps 608 mmHg 55%

    Tomorrow, 21 February, Friday

    Time Temperature Precipitation Wind Pressure Humidity
    00:00 -1°C° 0 mm 2 mps 608 mmHg 54%
    01:00 -1°C° 0 mm 2 mps 607 mmHg 53%
    02:00 -1°C° 0 mm 2 mps 607 mmHg 51%
    03:00 -1°C° 0 mm 2 mps 607 mmHg 51%
    04:00 -1°C° 0 mm 2 mps 607 mmHg 50%
    05:00 -1°C° 0 mm 2 mps 606 mmHg 50%
    06:00 -1°C° 0 mm 2 mps 607 mmHg 49%
    07:00 -1°C° 0 mm 2 mps 607 mmHg 48%
    08:00 -1°C° 0 mm 2 mps 607 mmHg 46%
    09:00 +2°C° 0 mm 2 mps 608 mmHg 49%
    10:00 +3°C° 0 mm 2 mps 608 mmHg 52%
    11:00 +5°C° 0 mm 2 mps 609 mmHg 54%
    18:00 +7°C° 0 mm 1 mps 609 mmHg 50%
    19:00 +6°C° 0 mm 1 mps 610 mmHg 50%
    20:00 +5°C° 0 mm 1 mps 610 mmHg 50%
    21:00 +5°C° 0 mm 1 mps 610 mmHg 50%
    22:00 +5°C° 0 mm 1 mps 610 mmHg 50%
    23:00 +3°C° 0 mm 2 mps 610 mmHg 50%

    Day after tomorrow, 22 February, Saturday

    Time Temperature Precipitation Wind Pressure Humidity
    00:00 +4°C° 0 mm 1 mps 610 mmHg 51%
    01:00 +4°C° 0 mm 1 mps 610 mmHg 52%
    02:00 +4°C° 0 mm 1 mps 610 mmHg 53%
    03:00 +3°C° 0 mm 1 mps 610 mmHg 54%
    04:00 +3°C° 0 mm 1 mps 610 mmHg 55%
    05:00 +3°C° 0 mm 1 mps 609 mmHg 55%
    06:00 +3°C° 0 mm 1 mps 610 mmHg 55%
    07:00 +3°C° 0 mm 1 mps 610 mmHg 55%
    08:00 +3°C° 0 mm 1 mps 611 mmHg 55%
    09:00 +4°C° 0 mm 1 mps 611 mmHg 55%
    10:00 +6°C° 0 mm 1 mps 611 mmHg 55%
    11:00 +7°C° 0 mm 1 mps 612 mmHg 55%
    12:00 +8°C° 0 mm 1 mps 612 mmHg 55%
    13:00 +8°C° 0 mm 1 mps 611 mmHg 54%
    14:00 +9°C° 0 mm 1 mps 611 mmHg 54%
    15:00 +9°C° 0 mm 1 mps 611 mmHg 54%
    16:00 +8°C° 0 mm 1 mps 611 mmHg 55%
    17:00 +7°C° 0 mm 2 mps 611 mmHg 55%
    18:00 +6°C° 0 mm 2 mps 611 mmHg 56%
    19:00 +5°C° 0 mm 2 mps 611 mmHg 57%
    20:00 +4°C° 0 mm 2 mps 611 mmHg 58%
    21:00 +4°C° 0 mm 2 mps 611 mmHg 58%
    22:00 +4°C° 0 mm 2 mps 611 mmHg 57%
    23:00 +3°C° 0 mm 2 mps 611 mmHg 56%

    23 February, Sunday

    Time Temperature Precipitation Wind Pressure Humidity
    00:00 +3°C° 0 mm 2 mps 610 mmHg 56%
    01:00 +2°C° 0 mm 2 mps 610 mmHg 55%
    02:00 +3°C° 0 mm 1 mps 610 mmHg 55%
    03:00 +3°C° 0 mm 1 mps 609 mmHg 55%
    04:00 +2°C° 0 mm 1 mps 609 mmHg 54%
    05:00 +2°C° 0 mm 1 mps 608 mmHg 54%
    06:00 +2°C° 0 mm 1 mps 608 mmHg 52%
    07:00 +1°C° 0 mm 2 mps 609 mmHg 51%
    08:00 +1°C° 0 mm 2 mps 609 mmHg 50%
    09:00 +4°C° 0 mm 1 mps 609 mmHg 49%
    10:00 +5°C° 0 mm 1 mps 610 mmHg 48%
    11:00 +7°C° 0 mm 1 mps 610 mmHg 46%
    12:00 +7°C° 0 mm 1 mps 610 mmHg 46%
    13:00 +8°C° 0 mm 1 mps 610 mmHg 46%
    14:00 +9°C° 0 mm 1 mps 609 mmHg 47%
    15:00 +9°C° 0 mm 1 mps 609 mmHg 48%
    16:00 +8°C° 0 mm 1 mps 609 mmHg 50%
    17:00 +7°C° 0 mm 2 mps 609 mmHg 51%
    18:00 +7°C° 0 mm 1 mps 609 mmHg 52%
    19:00 +6°C° 0 mm 1 mps 609 mmHg 53%
    20:00 +5°C° 0 mm 1 mps 609 mmHg 54%
    21:00 +5°C° 0 mm 1 mps 609 mmHg 53%
    22:00 +4°C° 0 mm 1 mps 609 mmHg 52%
    23:00 +3°C° 0 mm 2 mps 609 mmHg 52%

    24 February, Monday

    Time Temperature Precipitation Wind Pressure Humidity
    00:00 +4°C° 0 mm 1 mps 609 mmHg 52%
    01:00 +3°C° 0 mm 1 mps 608 mmHg 52%
    02:00 +3°C° 0 mm 1 mps 608 mmHg 52%
    03:00 +3°C° 0 mm 1 mps 607 mmHg 52%
    04:00 +2°C° 0 mm 1 mps 607 mmHg 51%
    05:00 +1°C° 0 mm 2 mps 607 mmHg 51%
    06:00 +1°C° 0 mm 2 mps 607 mmHg 49%
    07:00 +1°C° 0 mm 2 mps 607 mmHg 48%
    08:00 +2°C° 0 mm 2 mps 608 mmHg 46%
    09:00 +3°C° 0 mm 2 mps 608 mmHg 43%
    10:00 +4°C° 0 mm 2 mps 608 mmHg 40%
    11:00 +6°C° 0 mm 2 mps 609 mmHg 37%
    12:00 +7°C° 0 mm 2 mps 608 mmHg 38%
    13:00 +7°C° 0 mm 2 mps 608 mmHg 38%
    14:00 +8°C° 0 mm 2 mps 608 mmHg 38%
    15:00 +8°C° 0 mm 2 mps 608 mmHg 41%
    16:00 +7°C° 0 mm 2 mps 607 mmHg 43%
    17:00 +7°C° 0 mm 2 mps 607 mmHg 45%
    18:00 +6°C° 0 mm 2 mps 607 mmHg 47%
    19:00 +5°C° 0 mm 2 mps 608 mmHg 49%
    20:00 +4°C° 0 mm 2 mps 608 mmHg 51%
    21:00 +4°C° 0 mm 2 mps 608 mmHg 50%
    22:00 +3°C° 0 mm 2 mps 608 mmHg 50%
    23:00 +3°C° 0 mm 2 mps 608 mmHg 50%

    25 February, Tuesday

    Time Temperature Precipitation Wind Pressure Humidity
    00:00 +3°C° 0 mm 2 mps 608 mmHg 50%
    01:00 +2°C° 0 mm 2 mps 608 mmHg 51%
    02:00 +2°C° 0 mm 2 mps 607 mmHg 51%
    03:00 +2°C° 0 mm 2 mps 607 mmHg 52%
    04:00 +2°C° 0 mm 2 mps 607 mmHg 53%
    05:00 +1°C° 0 mm 2 mps 607 mmHg 54%
    06:00 +2°C° 0 mm 2 mps 607 mmHg 53%
    07:00 +2°C° 0 mm 2 mps 607 mmHg 53%
    08:00 +2°C° 0 mm 2 mps 607 mmHg 52%
    09:00 +3°C° 0 mm 2 mps 608 mmHg 49%
    10:00 +5°C° 0 mm 2 mps 608 mmHg 47%
    11:00 +6°C° 0 mm 2 mps 608 mmHg 44%
    12:00 +7°C° 0 mm 2 mps 608 mmHg 44%
    13:00 +8°C° 0 mm 2 mps 608 mmHg 44%
    14:00 +9°C° 0 mm 2 mps 608 mmHg 44%
    15:00 +8°C° 0 mm 2 mps 608 mmHg 46%
    16:00 +8°C° 0 mm 2 mps 607 mmHg 47%
    17:00 +8°C° 0 mm 2 mps 607 mmHg 48%
    18:00 +7°C° 0 mm 2 mps 607 mmHg 50%
    19:00 +6°C° 0 mm 2 mps 607 mmHg 52%
    20:00 +6°C° 0 mm 1 mps 607 mmHg 54%
    21:00 +6°C° 0 mm 1 mps 607 mmHg 54%
    22:00 +6°C° 0 mm 1 mps 607 mmHg 54%
    23:00 +6°C° 0 mm 1 mps 607 mmHg 53%
    Show more